Location: Buenos Aires
(34.5875°S, 58.6725°W)
Time: 21:43:02
(UTC+00:00)

Daily predictions for brighter satellites

Satellite Brightness Start Highest point End
(mag) Time Altitude Azimuth Time Altitude Azimuth Time Altitude Azimuth
H-2A ROCKET BODY 4.5 23:18:39 10° NNE 23:22:09 13° ENE 23:27:57 10° E
Cosmos 44 3.2 23:20:38 10° N 23:25:01 50° ENE 23:29:14 10° SE
Landsat 7 4.4 23:22:06 10° SSE 23:26:31 36° E 23:30:51 10° NNE
NOSS 3-4 (C) 4.2 23:19:03 10° NNW 23:27:37 75° ENE 23:35:58 10° SE
NOSS 3-4 (A) 4.3 23:19:00 10° NNW 23:27:39 75° ENE 23:35:59 10° SE
Cosmos 2297 3.9 23:22:20 10° SSW 23:28:04 61° ESE 23:33:44 10° NNE
Cosmos 2084 Rocket 4.0 23:26:17 10° NW 23:30:30 66° WSW 23:34:58 10° SSE
SJ-6B 3.8 23:27:48 10° SE 23:30:56 25° E 23:34:00 10° NNE
Delta 142 4.4 23:27:09 10° NW 23:30:57 33° NNE 23:35:20 10° ENE
Cosmos 1140 Rocket 3.6 23:27:17 10° NNW 23:32:24 81° WSW 23:37:37 10° SSE
CZ-4B DEB 4.3 23:32:39 10° SSE 23:38:09 63° ENE 23:43:37 10° N
BREEZE-M DEB (TANK) 3.9 23:37:12 10° NNW 23:40:09 31° NE 23:45:36 10° ESE
CZ-4C R/B 1.7 23:36:39 10° SSW 23:41:37 76° WNW 23:45:44 10° NNE
USA 186 3.5 23:40:09 10° SE 23:42:07 15° E 23:43:20 13° ENE
Cosmos 1271 Rocket 3.3 23:42:03 10° NNW 23:45:52 62° W 23:49:40 10° S
Cosmos 1743 2.8 23:42:26 10° N 23:46:06 52° E 23:49:48 10° SSE
FAST 4.4 23:46:25 10° N 23:49:11 86° W 23:51:58 10° S
Cosmos 1745 Rocket 4.3 23:43:37 10° S 23:49:51 53° E 23:55:56 10° NNE
Cosmos 1603 3.7 23:45:22 10° N 23:50:53 63° ENE 23:56:28 10° SSE
Meteor 2-4 Rocket 3.8 23:46:45 10° S 23:52:19 81° W 23:57:42 10° N
OAO 3 Rocket 3.1 23:48:25 10° W 23:53:07 79° N 23:57:04 14° ENE
Cosmos 1743 Rocket 4.3 23:49:36 11° NNE 23:53:21 32° E 23:57:15 10° SSE
Cosmos 1536 3.7 23:53:19 14° NE 23:56:03 29° E 23:59:30 10° SSE
